Temperatures and Conditions from around the state of pennsylvania

NOAA NWS Hourly Roundups by Site

Regional Weather Roundup for State College, PA

To Select Another Site Choose from List

Select Site:  

000
ASUS41 KCTP 220010
RWRCTP

REGIONAL WEATHER ROUNDUP
NATIONAL WEATHER SERVICE STATE COLLEGE PA
800 PM EDT FRI SEP 21 2018

Note: "fair" indicates few or no clouds below 12,000 feet with no
significant weather and/or obstructions to visibility.

* = STATION THAT DOES NOT REPORT PRECIPITATION /E.G. RAIN...SNOW...ETC/
    THUNDER OR FOG.

PAZ002>004-007>009-013>016-020>023-029>032-220100-
WESTERN PENNSYLVANIA

CITY           SKY/WX    TMP DP  RH WIND       PRES   REMARKS
ERIE           FAIR      77  67  71 W15G25    29.87R
MEADVILLE      MOCLDY    71  71 100 SW6       29.93R
FRANKLIN*      LGT RAIN  70  69  97 SW7       29.95
NEW CASTLE     FAIR      68  66  93 SW6       29.95R
BEAVER COUNTY  HVY RAIN  66  64  94 SW14G21   29.97R
BUTLER*        LGT RAIN  67  65  93 SW9G18    29.98R
PITTSBURGH INT HVY RAIN  73  65  75 W31G46    29.98R VSB 3/4
PITTSBURGH     MOCLDY    81  69  67 SW15G23   29.96R
INDIANA*       CLEAR     79  70  73 SW9G17    29.99R
LATROBE        CLEAR     81  70  69 SW7G18    29.96R
WASHINGTON CO* NOT AVBL
$$

PAZ004>006-010>012-017>019-024>028-033>037-041-042-045-046-049>053-220100-
CENTRAL PENNSYLVANIA

CITY           SKY/WX    TMP DP  RH WIND       PRES   REMARKS
BRADFORD       LGT RAIN  70  69  97 W7        29.93R
DUBOIS         FAIR      77  66  68 SW13G22   29.93R
CLEARFIELD     LGT RAIN  79  67  66 S10       29.93R
JOHNSTOWN      FAIR      76  66  71 SW13      30.02R
ALTOONA        FAIR      76  69  79 S9        29.99R
STATE COLLEGE  CLEAR     72  68  88 S9G16     29.95R
WILLIAMSPORT   CLOUDY    71  65  81 S14       29.93R
SELINSGROVE    CLOUDY    71  66  84 S12G20    29.96S
FT INDIANTOWN  NOT AVBL
CAPITAL CITY   CLOUDY    75  67  76 S5        29.99F
HARRISBURG     CLOUDY    72  67  84 S9        29.98F
YORK           CLOUDY    72  67  84 VRB6      30.00F
$$

PAZ038>040-043-044-047-048-054-055-060>062-067>071-220100-
EASTERN PENNSYLVANIA

CITY           SKY/WX    TMP DP  RH WIND       PRES   REMARKS
SCRANTON       CLOUDY    69  64  84 SW10G20   29.96F
MOUNT POCONO   CLOUDY    63  63 100 VRB7G20   30.02F FOG
ALLENTOWN      CLOUDY    73  64  73 SW6       30.00F
QUAKERTOWN*    CLOUDY    72  66  83 S7G14     30.01F
READING        CLOUDY    72  68  87 S10G17    29.99F
LANCASTER      CLOUDY    73  68  84 S8G16     30.01S
COATESVILLE    CLOUDY    70  66  88 VRB6G16   30.03F
POTTSTOWN      CLOUDY    71  66  84 S7        30.03F
BLUE BELL      CLOUDY    70  68  94 S8        30.02F
DOYLESTOWN     CLOUDY    72  66  81 S8        30.01F
WILLOW GROVE   NOT AVBL
NORTH PHILA    CLOUDY    75  66  73 VRB7      30.03F
PHILADELPHIA   CLOUDY    73  66  78 S10       30.02F
$$


 

View Past Reports for State College, PA.

Products Courtesy of NOAA-NWS
NWS Information Parsing Script by Ken True at Saratoga Weather - Script by SE Lincoln Weather.